Regional Weather Roundup
Issued by NWS

Home | Current Version | Previous Version | Text Only | Print | Product List | Glossary Off
Versions: 1 2 3 4 5 6 7 8 9 10 11 12 13 14 15 16 17 18 19 20 21 22 23 24 25 26 27 28 29 30 31 32 33 34 35 36 37 38 39 40 41 42 43 44 45 46 47 48 49 50

000
ASUS43 KTOP 250208
RWRKS

WEATHER ROUNDUP FOR KANSAS
NATIONAL WEATHER SERVICE GOODLAND KS
800 PM CST FRI NOV 24 2017

NOTE:  "FAIR" INDICATES FEW OR NO CLOUDS BELOW 12,000 FEET WITH NO
SIGNIFICANT WEATHER AND/OR OBSTRUCTIONS TO VISIBILITY.

KSZ001>006-013>018-027>032-041>047-250300-
NORTHWEST KANSAS

CITY           SKY/WX    TMP DP  RH WIND       PRES   REMARKS
GOODLAND       PTCLDY    44  33  65 NW3       29.99R
HAYS           CLOUDY    60  40  47 N15       29.94R
HILL CITY      CLOUDY    57  38  48 N9        29.97R
RUSSELL        MOCLDY    60  42  51 N8        29.91R
$$

KSZ061>065-074>080-084>089-250300-
SOUTHWEST KANSAS

CITY           SKY/WX    TMP DP  RH WIND       PRES   REMARKS
DODGE CITY     CLOUDY    62  37  39 NE17      29.89R
ELKHART        CLEAR     64  38  38 NE25      29.90R
GARDEN CITY    MOCLDY    61  36  39 NE18G28   29.91R
GREAT BEND     CLOUDY    61  39  44 NE10      29.89R
LIBERAL        CLEAR     57  36  45 N13       29.88R
PRATT          MOCLDY    63  35  35 NE15      29.87R
$$

KSZ066>073-081>083-090>101-250300-
SOUTHEAST KANSAS

CITY           SKY/WX    TMP DP  RH WIND       PRES   REMARKS
CHANUTE        CLOUDY    68  41  37 NW17G23   29.82R
COFFEYVILLE    CLOUDY    66  38  35 S9        29.77R
HUTCHINSON     CLOUDY    66  40  38 NE14      29.84R
MEDICINE LODGE   N/A     56  39  53 N14G21    29.82R
NEWTON         CLOUDY    63  40  42 NE14      29.85R
PARSONS        MOCLDY    60  40  47 W3        29.79R
WICHITA INTL   MOCLDY    67  39  35 N22G31    29.83R
WICHITA JABRA  CLOUDY    65  39  38 N14       29.84R
WICHITA MCCONL CLOUDY    66  37  35 NE17      29.82R
WINFIELD       MOCLDY    56  40  55 N8        29.80R
$$

KSZ007>012-019>026-033>040-048>060-102>105-250300-
NORTHEAST KANSAS

CITY           SKY/WX    TMP DP  RH WIND       PRES   REMARKS
CONCORDIA      PTCLDY    58  36  43 N8        29.89R
EMPORIA        CLOUDY    64  40  41 NE10      29.80R
LAWRENCE       MOCLDY    59  42  53 W6        29.81R
MANHATTAN      CLOUDY    57  40  52 N3        29.85R
MARYSVILLE     CLOUDY    59  34  38 N16G23    29.85R
OLATHE IND     MOCLDY    61  42  49 NW8       29.82R
OLATHE EXE     PTCLDY    63  41  44 N7        29.81R
SALINA         PTCLDY    61  42  49 NW12      29.89R
TOPEKA BILLARD CLOUDY    61  42  49 W3        29.81R
TOPEKA FORBES  CLOUDY    60  42  51 NW7       29.82R
$$



USA.gov is the U.S. government's official web portal to all federal, state and local government web resources and services.